When you browse on this site, cookies collect data to enhance your experience and personalize the content and advertising you see.
Visit our Privacy Policy to learn more. By continuing to use the site, you agree to this use of cookies and data.
  • In Germany
  • List of Countries
  • For 7 days
  • Water Temperature
  • Weather Map
  • Weather Widgets
  • user-avatar
    Login

    Hourly Weather Kerns

    Today, 5 June, Friday

    Time Temperature Precipitation Wind Pressure Humidity
    00:00 +19°C° 0.1 mm 5 mps 763 mmHg 95%
    01:00 +19°C° 0.1 mm 5 mps 762 mmHg 96%
    02:00 +19°C° 0.1 mm 5 mps 762 mmHg 97%
    03:00 +20°C° 0.1 mm 5 mps 762 mmHg 97%
    04:00 +21°C° 0 mm 5 mps 761 mmHg 96%
    05:00 +21°C° 0.1 mm 5 mps 761 mmHg 96%
    06:00 +21°C° 0.1 mm 5 mps 762 mmHg 97%
    07:00 +21°C° 0.1 mm 6 mps 762 mmHg 97%
    08:00 +22°C° 0.1 mm 6 mps 762 mmHg 91%
    09:00 +23°C° 0.1 mm 6 mps 763 mmHg 86%
    10:00 +24°C° 0 mm 6 mps 763 mmHg 82%
    11:00 +26°C° 0.1 mm 6 mps 762 mmHg 79%
    12:00 +26°C° 0.1 mm 6 mps 762 mmHg 76%
    13:00 +27°C° 0.1 mm 6 mps 762 mmHg 73%
    14:00 +27°C° 0.1 mm 6 mps 761 mmHg 75%
    15:00 +26°C° 0.1 mm 6 mps 761 mmHg 76%
    16:00 +26°C° 0.1 mm 6 mps 761 mmHg 78%
    17:00 +23°C° 0.1 mm 6 mps 761 mmHg 83%
    18:00 +22°C° 0.1 mm 6 mps 762 mmHg 89%
    19:00 +21°C° 0.1 mm 5 mps 762 mmHg 94%
    20:00 +21°C° 0.1 mm 5 mps 763 mmHg 94%
    21:00 +21°C° 0.1 mm 5 mps 763 mmHg 94%
    22:00 +21°C° 0.1 mm 5 mps 763 mmHg 93%
    23:00 +21°C° 0 mm 5 mps 763 mmHg 94%

    Tomorrow, 6 June, Saturday

    Time Temperature Precipitation Wind Pressure Humidity
    00:00 +20°C° 0 mm 5 mps 762 mmHg 95%
    01:00 +20°C° 0 mm 5 mps 762 mmHg 96%
    02:00 +20°C° 0.1 mm 5 mps 761 mmHg 97%
    03:00 +20°C° 0.1 mm 4 mps 761 mmHg 97%
    04:00 +20°C° 0.1 mm 4 mps 761 mmHg 98%
    05:00 +21°C° 0.1 mm 5 mps 761 mmHg 98%
    06:00 +21°C° 0.1 mm 5 mps 761 mmHg 98%
    07:00 +21°C° 0.1 mm 5 mps 761 mmHg 98%
    08:00 +22°C° 0.2 mm 5 mps 761 mmHg 91%
    09:00 +23°C° 0.2 mm 5 mps 761 mmHg 85%
    10:00 +26°C° 0.2 mm 6 mps 762 mmHg 78%
    11:00 +26°C° 0.1 mm 6 mps 761 mmHg 74%
    12:00 +27°C° 0.1 mm 6 mps 760 mmHg 70%
    13:00 +28°C° 0.1 mm 6 mps 760 mmHg 65%
    14:00 +27°C° 0.1 mm 6 mps 760 mmHg 69%
    15:00 +27°C° 0.1 mm 6 mps 759 mmHg 73%
    16:00 +26°C° 0.1 mm 6 mps 759 mmHg 77%
    17:00 +25°C° 0.3 mm 5 mps 760 mmHg 84%
    18:00 +22°C° 0.3 mm 5 mps 760 mmHg 90%
    19:00 +21°C° 0.3 mm 5 mps 761 mmHg 97%
    20:00 +21°C° 0.3 mm 5 mps 761 mmHg 97%
    21:00 +21°C° 0.3 mm 5 mps 761 mmHg 97%
    22:00 +21°C° 0.3 mm 5 mps 762 mmHg 98%
    23:00 +21°C° 0.2 mm 4 mps 761 mmHg 98%

    Day after tomorrow, 7 June, Sunday

    Time Temperature Precipitation Wind Pressure Humidity
    00:00 +20°C° 0.2 mm 4 mps 761 mmHg 98%
    01:00 +20°C° 0.2 mm 4 mps 760 mmHg 98%
    02:00 +20°C° 0.1 mm 4 mps 760 mmHg 98%
    03:00 +20°C° 0.1 mm 4 mps 760 mmHg 98%
    04:00 +20°C° 0.1 mm 4 mps 760 mmHg 98%
    05:00 +20°C° 0.1 mm 3 mps 760 mmHg 98%
    06:00 +20°C° 0.1 mm 3 mps 760 mmHg 98%
    07:00 +19°C° 0.1 mm 3 mps 760 mmHg 98%
    08:00 +21°C° 0.1 mm 4 mps 761 mmHg 89%
    09:00 +23°C° 0.1 mm 4 mps 761 mmHg 80%
    10:00 +26°C° 0.1 mm 4 mps 761 mmHg 72%
    11:00 +27°C° 0.1 mm 4 mps 760 mmHg 70%
    12:00 +27°C° 0.1 mm 4 mps 760 mmHg 69%
    13:00 +27°C° 0.1 mm 4 mps 759 mmHg 67%
    14:00 +27°C° 0.2 mm 4 mps 759 mmHg 72%
    15:00 +26°C° 0.2 mm 4 mps 759 mmHg 76%
    16:00 +25°C° 0.2 mm 5 mps 759 mmHg 81%
    17:00 +23°C° 0.1 mm 4 mps 759 mmHg 86%
    18:00 +22°C° 0.1 mm 4 mps 760 mmHg 91%
    19:00 +21°C° 0.1 mm 4 mps 760 mmHg 96%
    20:00 +21°C° 0.1 mm 4 mps 761 mmHg 96%
    21:00 +20°C° 0.1 mm 4 mps 761 mmHg 97%
    22:00 +20°C° 0.1 mm 4 mps 761 mmHg 97%
    23:00 +20°C° 0.1 mm 4 mps 761 mmHg 97%

    8 June, Monday

    Time Temperature Precipitation Wind Pressure Humidity
    00:00 +20°C° 0.1 mm 4 mps 761 mmHg 97%
    01:00 +20°C° 0.1 mm 4 mps 761 mmHg 98%
    02:00 +20°C° 0.2 mm 4 mps 761 mmHg 98%
    03:00 +20°C° 0.2 mm 4 mps 760 mmHg 98%
    04:00 +20°C° 0.2 mm 4 mps 760 mmHg 98%
    05:00 +20°C° 0.2 mm 4 mps 760 mmHg 98%
    06:00 +20°C° 0.2 mm 5 mps 761 mmHg 98%
    07:00 +20°C° 0.2 mm 5 mps 761 mmHg 98%
    08:00 +21°C° 0.2 mm 5 mps 761 mmHg 95%
    09:00 +22°C° 0.2 mm 6 mps 762 mmHg 91%
    10:00 +23°C° 0.2 mm 6 mps 762 mmHg 87%
    11:00 +24°C° 0.2 mm 6 mps 762 mmHg 83%
    12:00 +26°C° 0.2 mm 6 mps 761 mmHg 79%
    13:00 +26°C° 0.2 mm 7 mps 761 mmHg 75%
    14:00 +26°C° 0.1 mm 7 mps 761 mmHg 76%
    15:00 +24°C° 0.1 mm 6 mps 761 mmHg 77%
    16:00 +24°C° 0.1 mm 6 mps 760 mmHg 77%
    17:00 +23°C° 0.1 mm 6 mps 761 mmHg 84%
    18:00 +22°C° 0.1 mm 5 mps 761 mmHg 90%
    19:00 +20°C° 0.1 mm 5 mps 762 mmHg 96%
    20:00 +21°C° 0.2 mm 5 mps 762 mmHg 96%
    21:00 +21°C° 0.2 mm 5 mps 762 mmHg 97%
    22:00 +21°C° 0.2 mm 6 mps 763 mmHg 98%
    23:00 +21°C° 0.3 mm 6 mps 762 mmHg 97%

    9 June, Tuesday

    Time Temperature Precipitation Wind Pressure Humidity
    00:00 +21°C° 0.3 mm 6 mps 762 mmHg 97%
    01:00 +21°C° 0.3 mm 7 mps 762 mmHg 96%
    02:00 +21°C° 0.2 mm 7 mps 762 mmHg 96%
    03:00 +21°C° 0.2 mm 7 mps 761 mmHg 97%
    04:00 +21°C° 0.2 mm 7 mps 761 mmHg 97%
    05:00 +21°C° 0.2 mm 6 mps 761 mmHg 97%
    06:00 +21°C° 0.2 mm 6 mps 762 mmHg 97%
    07:00 +21°C° 0.2 mm 6 mps 762 mmHg 97%
    08:00 +22°C° 0.2 mm 6 mps 762 mmHg 92%
    09:00 +23°C° 0.2 mm 7 mps 762 mmHg 87%
    10:00 +24°C° 0.2 mm 7 mps 763 mmHg 83%
    11:00 +26°C° 0.2 mm 7 mps 762 mmHg 78%
    12:00 +27°C° 0.2 mm 7 mps 762 mmHg 74%
    13:00 +27°C° 0.2 mm 7 mps 761 mmHg 69%
    14:00 +27°C° 0.3 mm 7 mps 761 mmHg 74%
    15:00 +26°C° 0.3 mm 6 mps 761 mmHg 80%
    16:00 +24°C° 0.3 mm 6 mps 761 mmHg 85%
    17:00 +23°C° 0.2 mm 6 mps 762 mmHg 89%
    18:00 +22°C° 0.2 mm 5 mps 762 mmHg 93%
    19:00 +21°C° 0.2 mm 5 mps 762 mmHg 98%
    20:00 +21°C° 0.3 mm 5 mps 762 mmHg 98%
    21:00 +22°C° 0.3 mm 5 mps 763 mmHg 98%
    22:00 +22°C° 0.3 mm 4 mps 763 mmHg 98%
    23:00 +22°C° 0.4 mm 4 mps 763 mmHg 98%

    10 June, Wednesday

    Time Temperature Precipitation Wind Pressure Humidity
    00:00 +22°C° 0.4 mm 4 mps 762 mmHg 98%
    01:00 +22°C° 0.4 mm 4 mps 762 mmHg 97%
    02:00 +22°C° 0.4 mm 5 mps 762 mmHg 98%
    03:00 +22°C° 0.4 mm 5 mps 762 mmHg 98%
    04:00 +22°C° 0.4 mm 5 mps 761 mmHg 98%
    05:00 +22°C° 0.2 mm 5 mps 762 mmHg 97%
    06:00 +22°C° 0.2 mm 5 mps 762 mmHg 97%
    07:00 +22°C° 0.2 mm 5 mps 762 mmHg 97%
    08:00 +22°C° 0.2 mm 5 mps 763 mmHg 93%
    09:00 +23°C° 0.2 mm 5 mps 763 mmHg 88%
    10:00 +24°C° 0.2 mm 6 mps 763 mmHg 84%
    11:00 +26°C° 0.1 mm 6 mps 762 mmHg 81%
    12:00 +26°C° 0.1 mm 6 mps 762 mmHg 79%
    13:00 +26°C° 0.1 mm 6 mps 761 mmHg 76%
    14:00 +26°C° 0.2 mm 6 mps 761 mmHg 79%
    15:00 +25°C° 0.2 mm 5 mps 761 mmHg 83%
    16:00 +23°C° 0.2 mm 5 mps 761 mmHg 87%
    17:00 +23°C° 0.1 mm 5 mps 761 mmHg 90%
    18:00 +22°C° 0.1 mm 5 mps 762 mmHg 93%
    19:00 +21°C° 0.1 mm 5 mps 762 mmHg 97%
    20:00 +20°C° 0 mm 5 mps 762 mmHg 97%
    21:00 +20°C° 0 mm 5 mps 762 mmHg 97%
    22:00 +20°C° 0 mm 5 mps 763 mmHg 97%
    23:00 +20°C° 0 mm 5 mps 762 mmHg 97%
    Show more